Location: ASU Dark Sky Observatory
(36.2504°N, 81.4125°W)
Time: 14:11:49
(UTC-04:00)

Amateur Radio Satellites - All Passes

Search period start: 26 September 2017 13:41
Search period end: 27 September 2017 13:41
Location: ASU Dark Sky Observatory, 36.2504°N, 81.4125°W

Satellite Date Start Highest point End Downlink Frequencies (MHz)
Time Altitude Azimuth
QB50P2 26 Sep 13:42:56 13:45:12 14° 267° (W) 13:47:30 145.880/145.840
AO-7 26 Sep 13:49:06 13:51:21 11° 48° (NE) 13:53:36 .
RS-15 26 Sep 13:59:13 14:10:43 48° 49° (NE) 14:21:33 29.354- 29.394
Oscar 19 26 Sep 14:00:54 14:06:03 69° 74° (ENE) 14:11:14 437.125/150
SO-50 26 Sep 14:02:39 14:07:08 85° 301° (WNW) 14:11:39 436.795
Gurwin Techsat 1B 26 Sep 14:10:56 14:16:06 57° 73° (ENE) 14:21:19 435.225
NO-84 26 Sep 14:11:58 14:13:50 13° 328° (NNW) 14:15:37 435.350 FM
50 SAT 26 Sep 14:12:01 14:14:49 25° 97° (E) 14:17:38 437.505
UKube-1 26 Sep 14:13:13 14:15:28 14° 93° (E) 14:17:44 .
DX 1 26 Sep 14:25:24 14:29:17 32° 98° (E) 14:33:10 434.975-435.025
PCSat 26 Sep 14:32:01 14:37:23 69° 114° (ESE) 14:42:47 145.827
M-CUBED/EXP-1 PRIME 26 Sep 14:32:24 14:33:47 11° 261° (W) 14:35:09 437.505
SPROUT 26 Sep 14:38:07 14:41:46 28° 289° (WNW) 14:45:25 437.525
YUBILEINY 26 Sep 14:42:07 14:48:33 23° 291° (WNW) 14:55:03 435.215
VELOX 1 26 Sep 15:03:26 15:06:48 22° 291° (WNW) 15:10:11 145.980
ITAMSAT 1 26 Sep 15:14:14 15:18:02 21° 66° (ENE) 15:21:52 435.822/435.867
AO-7 26 Sep 15:34:16 15:42:23 59° 67° (ENE) 15:50:29 .
ITUPSAT 1 26 Sep 15:42:25 15:45:27 17° 93° (E) 15:48:28 437.325
Oscar 19 26 Sep 15:43:49 15:45:47 12° 269° (W) 15:47:45 437.125/150
50 SAT 26 Sep 15:45:25 15:47:02 13° 291° (WNW) 15:48:38 437.505
SO-50 26 Sep 15:47:27 15:48:16 10° 318° (NW) 15:49:06 436.795
UKube-1 26 Sep 15:47:35 15:51:40 42° 287° (WNW) 15:55:43 .
Gurwin Techsat 1B 26 Sep 15:53:20 15:56:22 15° 268° (W) 15:59:26 435.225
DX 1 26 Sep 16:02:07 16:05:13 20° 293° (WNW) 16:08:19 434.975-435.025
RS-15 26 Sep 16:12:04 16:23:06 49° 251° (WSW) 16:33:36 29.354- 29.394
BEESAT 26 Sep 16:15:41 16:20:11 39° 99° (E) 16:24:37 436.000
PCSat 26 Sep 16:17:50 16:21:17 17° 311° (NW) 16:24:45 145.827
MOZHAYETS 4 26 Sep 16:18:37 16:23:02 43° 99° (E) 16:27:25
ITAMSAT 1 26 Sep 16:52:19 16:57:10 41° 261° (W) 17:02:04 435.822/435.867
CUBESAT XI-V 26 Sep 16:54:20 16:57:46 21° 94° (E) 17:01:11 437.345
ITUPSAT 1 26 Sep 17:18:52 17:23:27 45° 288° (WNW) 17:28:00 437.325
DOVE 4 26 Sep 17:22:09 17:26:01 31° 73° (ENE) 17:29:45 437.250
CUTE-I 26 Sep 17:28:19 17:29:47 11° 61° (ENE) 17:31:15 437.470
AO-7 26 Sep 17:28:41 17:35:28 27° 263° (W) 17:42:17 .
XW-2F 26 Sep 17:43:21 17:44:32 11° 67° (ENE) 17:45:42 145.980 - 146.000
XW-2B 26 Sep 17:45:30 17:47:14 13° 67° (ENE) 17:48:59 145.730 - 145.750
KKS-1 26 Sep 17:51:49 17:55:37 27° 97° (E) 17:59:26 437.445
BEESAT 26 Sep 17:54:12 17:57:38 20° 294° (WNW) 18:01:03 436.000
NUDT-PHONESAT 26 Sep 17:55:20 17:56:38 12° 67° (ENE) 17:57:57 437.300
MOZHAYETS 4 26 Sep 17:56:52 17:59:48 17° 294° (WNW) 18:02:42
XW-2C 26 Sep 18:05:34 18:08:37 23° 71° (ENE) 18:11:41 145.795 - 145.815
STARS 26 Sep 18:07:34 18:10:16 16° 94° (E) 18:12:58 437.465
LilacSat-2 26 Sep 18:21:18 18:24:54 39° 74° (ENE) 18:28:33 437.200
JUGNU 26 Sep 18:25:34 18:28:29 14° 172° (S) 18:31:24 437.505
KAITUO 1B 26 Sep 18:26:59 18:30:20 30° 73° (ENE) 18:33:42 145.475/437.950
CUBESAT XI-V 26 Sep 18:31:03 18:35:09 33° 289° (WNW) 18:39:14 437.345
Tancredo 1 26 Sep 18:39:09 18:41:47 74° 318° (NW) 18:44:27 437.200
BEESAT 3 26 Sep 18:40:23 18:43:33 23° 111° (ESE) 18:46:45 437.485
ISS 26 Sep 19:00:09 19:02:18 17° 129° (SE) 19:04:28 437.550
DOVE 4 26 Sep 19:00:42 19:03:44 18° 265° (W) 19:06:41 437.250
CUTE-I 26 Sep 19:03:44 19:09:03 85° 257° (WSW) 19:14:23 437.470
XW-2D 26 Sep 19:04:45 19:08:31 54° 260° (W) 19:12:18 145.860 - 145.880
HO-68 26 Sep 19:06:25 19:13:03 43° 67° (ENE) 19:19:43 435.675
NO-84 26 Sep 19:08:58 19:10:47 14° 33° (NNE) 19:12:31 435.350 FM
XW-2F 26 Sep 19:14:32 19:18:12 44° 261° (W) 19:21:53 145.980 - 146.000
XW-2B 26 Sep 19:17:26 19:21:02 38° 262° (W) 19:24:39 145.730 - 145.750
SEEDS 26 Sep 19:19:28 19:22:39 21° 69° (ENE) 19:25:49 437.485
CUBEBUG 2 26 Sep 19:22:40 19:25:50 20° 68° (ENE) 19:29:05 437.445
UWE-3 26 Sep 19:24:04 19:25:44 12° 65° (ENE) 19:27:27 435.000/436.395/437.385
NUDT-PHONESAT 26 Sep 19:26:33 19:30:05 40° 261° (W) 19:33:40 437.300
KKS-1 26 Sep 19:28:30 19:32:01 23° 291° (WNW) 19:35:33 437.445
AO-85 26 Sep 19:29:23 19:32:28 22° 112° (ESE) 19:35:32 145.980
nSIGHT-1 26 Sep 19:31:54 19:34:58 43° 134° (SE) 19:38:02 .
AAUSAT CUBESAT 2 26 Sep 19:33:19 19:35:06 13° 66° (ENE) 19:36:52 437.432
XW-2C 26 Sep 19:39:49 19:42:42 20° 265° (W) 19:45:37 145.795 - 145.815
STARS 26 Sep 19:42:37 19:46:44 39° 288° (WNW) 19:50:50 437.465
STRAND 1 26 Sep 19:45:24 19:48:27 16° 93° (E) 19:51:29 437.568
CUTE 1.7 + AOD 2 26 Sep 19:52:53 19:57:10 88° 88° (E) 20:01:29 437.475
LilacSat-2 26 Sep 19:57:48 19:59:19 12° 268° (W) 20:00:50 437.200
AO-73 26 Sep 19:58:16 20:00:33 14° 66° (ENE) 20:02:51 145.935
KAITUO 1B 26 Sep 20:02:11 20:04:21 15° 266° (W) 20:06:32 145.475/437.950
ZACube-1 26 Sep 20:02:31 20:05:26 18° 67° (ENE) 20:08:24 437.345
JUGNU 26 Sep 20:13:16 20:16:43 16° 182° (S) 20:20:08 437.505
BEESAT 3 26 Sep 20:17:33 20:20:58 26° 307° (NW) 20:24:25 437.485
XW-2A 26 Sep 20:20:29 20:23:53 79° 77° (ENE) 20:27:19 145.665 - 145.685
BEESAT 2 26 Sep 20:32:18 20:36:14 59° 301° (WNW) 20:40:15 435.950
ISS 26 Sep 20:35:27 20:38:32 39° 324° (NW) 20:41:39 437.550
NO-84 26 Sep 20:45:31 20:48:17 37° 231° (SW) 20:50:57 435.350 FM
SEEDS 26 Sep 20:54:28 20:58:07 28° 264° (W) 21:01:47 437.485
HO-68 26 Sep 20:54:35 21:00:48 32° 263° (W) 21:07:06 435.675
UWE-3 26 Sep 20:57:25 21:01:38 55° 261° (W) 21:06:00 435.000/436.395/437.385
CUBEBUG 2 26 Sep 20:58:30 21:02:13 29° 264° (W) 21:06:04 437.445
AAUSAT CUBESAT 2 26 Sep 21:06:05 21:10:06 47° 261° (W) 21:14:06 437.432
nSIGHT-1 26 Sep 21:09:00 21:11:25 19° 330° (NNW) 21:13:50 .
AO-85 26 Sep 21:09:30 21:12:42 24° 308° (NW) 21:15:58 145.980
STRAND 1 26 Sep 21:22:53 21:27:53 53° 287° (WNW) 21:32:53 437.568
Oscar 11 26 Sep 21:26:54 21:31:15 80° 257° (WSW) 21:35:38 .
AO-73 26 Sep 21:32:07 21:36:17 47° 261° (W) 21:40:36 145.935
ZACube-1 26 Sep 21:37:23 21:41:22 36° 263° (W) 21:45:29 437.345
EO-88 26 Sep 21:42:24 21:44:26 14° 68° (ENE) 21:46:27 145.990 - 145.960
SRMSAT 26 Sep 21:44:59 21:48:07 15° 175° (S) 21:51:17 437.500
DELFI C3 26 Sep 22:02:11 22:06:00 52° 75° (ENE) 22:09:50 145.870
FO-29 26 Sep 22:02:59 22:08:28 44° 100° (E) 22:14:34 435.910
JUGNU 26 Sep 22:03:11 22:04:55 11° 192° (SSW) 22:06:38 437.505
TIGRISAT 26 Sep 22:16:32 22:19:17 15° 92° (E) 22:22:02 435.000
Max Valier Satellite 26 Sep 22:21:25 22:25:06 67° 75° (ENE) 22:28:49 145.860
SO-50 26 Sep 22:36:17 22:40:38 40° 55° (NE) 22:45:00 436.795
YUBILEINY 26 Sep 22:56:30 23:03:53 30° 72° (ENE) 23:11:14 435.215
EO-88 26 Sep 23:14:31 23:17:46 30° 262° (W) 23:21:04 145.990 - 145.960
PRISM 26 Sep 23:21:02 23:24:51 39° 99° (E) 23:28:41 437.425
PCSat 26 Sep 23:22:48 23:27:38 32° 55° (NE) 23:32:26 145.827
UNISAT 6 26 Sep 23:28:49 23:33:32 76° 284° (WNW) 23:38:13 437.425
SRMSAT 26 Sep 23:33:18 23:36:30 15° 185° (S) 23:39:42 437.500
FO-29 26 Sep 23:48:51 23:53:20 24° 292° (WNW) 23:58:12 435.910
TIGRISAT 26 Sep 23:51:39 23:56:09 46° 287° (WNW) 00:00:38 435.000
SPROUT 26 Sep 23:54:55 23:56:36 12° 65° (ENE) 23:58:18 437.525
LO-87 26 Sep 23:58:40 00:02:11 78° 257° (WSW) 00:05:43 145.935 - 145.965
ESTCUBE 1 27 Sep 00:07:27 00:11:58 80° 76° (ENE) 00:16:31 437.505/2401.250
SO-50 27 Sep 00:17:30 00:20:47 19° 250° (WSW) 00:24:06 436.795
VELOX 1 27 Sep 00:21:57 00:25:03 19° 68° (ENE) 00:28:09 145.980
NANOSAT C BR1 27 Sep 00:25:22 00:27:53 15° 93° (E) 00:30:24 145.865
DUCHIFAT 1 27 Sep 00:50:48 00:54:25 26° 96° (E) 00:58:00 145.980
YUBILEINY 27 Sep 00:52:35 01:00:59 54° 270° (W) 01:09:25 435.215
PRISM 27 Sep 00:57:37 00:59:45 14° 293° (WNW) 01:01:53 437.425
Tancredo 1 27 Sep 01:00:53 01:03:11 25° 34° (NE) 01:05:28 437.200
PCSat 27 Sep 01:06:11 01:10:56 32° 252° (WSW) 01:15:39 145.827
AIST 2D 27 Sep 01:06:47 01:10:03 38° 286° (WNW) 01:13:18 435.315
POLYITAN 1 27 Sep 01:09:43 01:13:58 59° 101° (E) 01:18:12 437.675
EO-79 27 Sep 01:12:54 01:17:11 65° 101° (E) 01:21:25 145.935-145.965
BUGSAT 1 27 Sep 01:13:23 01:14:45 11° 92° (E) 01:16:06 437.445
DX 1 27 Sep 01:18:49 01:22:02 21° 68° (ENE) 01:25:15 434.975-435.025
QB50P2 27 Sep 01:27:53 01:32:10 73° 284° (WNW) 01:36:26 145.880/145.840
SPROUT 27 Sep 01:27:53 01:32:00 51° 260° (W) 01:36:09 437.525
ISS 27 Sep 01:30:03 01:31:28 12° 23° (NNE) 01:32:53 437.550
VELOX 1 27 Sep 01:57:15 02:01:13 33° 262° (W) 02:05:13 145.980
NANOSAT C BR1 27 Sep 01:59:44 02:03:42 38° 288° (WNW) 02:07:39 145.865
nSIGHT-1 27 Sep 02:01:30 02:04:01 20° 30° (NNE) 02:06:32 .
M-CUBED/EXP-1 PRIME 27 Sep 02:10:19 02:13:30 49° 105° (ESE) 02:16:39 437.505
50 SAT 27 Sep 02:10:37 02:13:53 62° 259° (W) 02:17:10 437.505
O/OREOS (USA 219) 27 Sep 02:10:59 02:15:24 61° 107° (ESE) 02:19:53 437.305
Oscar 19 27 Sep 02:15:36 02:20:03 29° 96° (E) 02:24:29 437.125/150
DUCHIFAT 1 27 Sep 02:26:36 02:29:54 22° 291° (WNW) 02:33:12 145.980
Gurwin Techsat 1B 27 Sep 02:30:15 02:34:45 27° 96° (E) 02:39:14 435.225
Tancredo 1 27 Sep 02:35:35 02:37:26 17° 230° (SW) 02:39:17 437.200
UKube-1 27 Sep 02:38:45 02:43:02 73° 258° (WSW) 02:47:20 .
BUGSAT 1 27 Sep 02:46:14 02:50:20 50° 286° (WNW) 02:54:26 437.445
ITUPSAT 1 27 Sep 02:47:11 02:49:55 15° 65° (ENE) 02:52:40 437.325
POLYITAN 1 27 Sep 02:48:04 02:49:11 11° 295° (WNW) 02:50:18 437.675
DX 1 27 Sep 02:54:12 02:58:00 30° 263° (W) 03:01:49 434.975-435.025
ISS 27 Sep 03:05:08 03:08:26 73° 40° (NE) 03:11:42 437.550
MOZHAYETS 4 27 Sep 03:17:53 03:21:54 31° 71° (ENE) 03:25:58
BEESAT 27 Sep 03:19:29 03:23:45 34° 70° (ENE) 03:28:01 436.000
nSIGHT-1 27 Sep 03:37:23 03:40:27 40° 226° (SW) 03:43:31 .
AO-7 27 Sep 03:40:13 03:46:07 21° 94° (E) 03:51:59 .
O/OREOS (USA 219) 27 Sep 03:53:22 03:55:14 12° 304° (NW) 03:57:06 437.305
Oscar 19 27 Sep 03:54:53 03:59:16 29° 292° (WNW) 04:03:38 437.125/150
CUBESAT XI-V 27 Sep 03:55:38 03:58:31 16° 66° (ENE) 04:01:23 437.345
AO-85 27 Sep 04:02:33 04:04:53 14° 47° (NE) 04:07:18 145.980
Gurwin Techsat 1B 27 Sep 04:09:57 04:14:39 32° 291° (WNW) 04:19:19 435.225
RS-15 27 Sep 04:18:49 04:29:33 38° 106° (ESE) 04:40:23 29.354- 29.394
ITUPSAT 1 27 Sep 04:22:38 04:27:16 51° 260° (W) 04:31:57 437.325
BEESAT 3 27 Sep 04:35:50 04:39:48 75° 60° (ENE) 04:43:41 437.485
KKS-1 27 Sep 04:47:51 04:50:59 19° 67° (ENE) 04:54:07 437.445
BEESAT 2 27 Sep 04:52:23 04:56:04 33° 55° (NE) 04:59:41 435.950
MOZHAYETS 4 27 Sep 04:55:25 04:59:02 22° 265° (W) 05:02:40
BEESAT 27 Sep 04:57:53 05:01:31 22° 265° (W) 05:05:11 436.000
STARS 27 Sep 05:03:33 05:04:31 11° 64° (ENE) 05:05:29 437.465
ITAMSAT 1 27 Sep 05:07:18 05:12:33 85° 103° (ESE) 05:17:46 435.822/435.867
CUBESAT XI-V 27 Sep 05:30:57 05:35:28 46° 261° (W) 05:39:59 437.345
AO-7 27 Sep 05:31:13 05:39:28 73° 291° (WNW) 05:47:43 .
AO-85 27 Sep 05:41:08 05:45:40 71° 242° (WSW) 05:50:33 145.980
KKS-1 27 Sep 06:23:16 06:27:15 33° 262° (W) 06:31:17 437.445
RS-15 27 Sep 06:29:21 06:41:27 62° 306° (NW) 06:53:40 29.354- 29.394
BEESAT 2 27 Sep 06:30:46 06:33:31 18° 250° (WSW) 06:36:15 435.950
STARS 27 Sep 06:35:58 06:40:16 63° 259° (W) 06:44:36 437.465
XW-2D 27 Sep 06:40:37 06:43:12 17° 94° (E) 06:45:46 145.860 - 145.880
XW-2F 27 Sep 06:49:37 06:52:29 20° 95° (E) 06:55:19 145.980 - 146.000
ITAMSAT 1 27 Sep 06:49:53 06:51:15 11° 299° (WNW) 06:52:37 435.822/435.867
XW-2B 27 Sep 06:52:41 06:55:46 24° 96° (E) 06:58:51 145.730 - 145.750
STRAND 1 27 Sep 06:58:54 07:02:16 18° 65° (ENE) 07:05:39 437.568
DOVE 4 27 Sep 06:59:41 07:03:57 61° 285° (WNW) 07:08:28 437.250
NUDT-PHONESAT 27 Sep 06:59:42 07:02:30 20° 95° (E) 07:05:17 437.300
XW-2C 27 Sep 07:13:48 07:17:28 46° 99° (E) 07:21:06 145.795 - 145.815
CUTE-I 27 Sep 07:23:29 07:28:37 47° 100° (E) 07:33:46 437.470
AO-7 27 Sep 07:26:46 07:30:48 15° 309° (NW) 07:34:51 .
LilacSat-2 27 Sep 07:30:49 07:34:39 89° 101° (ESE) 07:38:26 437.200
KAITUO 1B 27 Sep 07:33:54 07:37:36 63° 101° (E) 07:41:15 145.475/437.950
CUTE 1.7 + AOD 2 27 Sep 07:41:19 07:44:13 18° 94° (E) 07:47:06 437.475
XW-2D 27 Sep 08:14:11 08:17:20 25° 289° (WNW) 08:20:28 145.860 - 145.880
FO-29 27 Sep 08:17:06 08:18:56 12° 63° (ENE) 08:20:42 435.910
XW-2F 27 Sep 08:23:34 08:26:29 21° 290° (WNW) 08:29:22 145.980 - 146.000
HO-68 27 Sep 08:23:53 08:30:59 58° 102° (ESE) 08:38:02 435.675
XW-2B 27 Sep 08:27:04 08:29:46 19° 290° (WNW) 08:32:28 145.730 - 145.750
NUDT-PHONESAT 27 Sep 08:33:24 08:36:15 21° 289° (WNW) 08:39:04 437.300
STRAND 1 27 Sep 08:36:08 08:41:02 48° 260° (W) 08:45:58 437.568
SEEDS 27 Sep 08:40:03 08:44:08 55° 100° (E) 08:48:12 437.485
RS-15 27 Sep 08:48:29 08:57:14 21° 334° (NNW) 09:05:56 29.354- 29.394
UWE-3 27 Sep 08:49:24 08:53:44 36° 97° (E) 08:58:01 435.000/436.395/437.385
XW-2C 27 Sep 08:50:38 08:51:10 10° 294° (WNW) 08:51:44 145.795 - 145.815
CUBEBUG 2 27 Sep 08:50:43 08:55:28 68° 101° (E) 09:00:10 437.445
AAUSAT CUBESAT 2 27 Sep 08:50:46 08:54:23 29° 97° (E) 08:57:58 437.432
CUTE-I 27 Sep 09:04:31 09:08:16 20° 295° (WNW) 09:12:02 437.470
CUTE 1.7 + AOD 2 27 Sep 09:16:20 09:20:05 31° 288° (WNW) 09:23:46 437.475
XW-2A 27 Sep 09:17:07 09:20:30 64° 284° (WNW) 09:23:51 145.665 - 145.685
Oscar 11 27 Sep 09:17:20 09:20:45 22° 95° (E) 09:24:07 .
AO-73 27 Sep 09:22:29 09:26:45 39° 98° (E) 09:30:58 145.935
ZACube-1 27 Sep 09:27:43 09:32:12 52° 99° (E) 09:36:36 437.345
FO-29 27 Sep 09:57:47 10:03:28 76° 257° (WSW) 10:08:43 435.910
PRISM 27 Sep 10:08:11 10:11:13 20° 69° (ENE) 10:14:13 437.425
HO-68 27 Sep 10:12:34 10:18:11 25° 298° (WNW) 10:23:46 435.675
SEEDS 27 Sep 10:18:15 10:19:18 11° 295° (WNW) 10:20:20 437.485
UNISAT 6 27 Sep 10:24:42 10:29:01 66° 75° (ENE) 10:33:27 437.425
UWE-3 27 Sep 10:26:30 10:29:52 20° 292° (WNW) 10:33:14 435.000/436.395/437.385
AAUSAT CUBESAT 2 27 Sep 10:26:45 10:29:35 18° 291° (WNW) 10:32:25 437.432
CUBEBUG 2 27 Sep 10:29:48 10:31:27 12° 296° (WNW) 10:33:06 437.445
EO-88 27 Sep 10:45:36 10:48:38 24° 96° (E) 10:51:37 145.990 - 145.960
TIGRISAT 27 Sep 10:47:11 10:51:31 74° 259° (W) 10:55:59 435.000
Oscar 11 27 Sep 10:53:10 10:56:48 27° 290° (WNW) 11:00:25 .
AO-73 27 Sep 10:59:36 11:02:38 18° 293° (WNW) 11:05:38 145.935
ZACube-1 27 Sep 11:05:37 11:07:58 14° 294° (WNW) 11:10:18 437.345
RS-15 27 Sep 11:09:52 11:16:42 16° 11° (N) 11:23:22 29.354- 29.394
DELFI C3 27 Sep 11:15:57 11:19:49 63° 284° (WNW) 11:23:40 145.870
Max Valier Satellite 27 Sep 11:27:26 11:31:06 58° 284° (WNW) 11:34:45 145.860
AIST 2D 27 Sep 11:37:50 11:41:12 42° 75° (ENE) 11:44:34 435.315
DUCHIFAT 1 27 Sep 11:41:06 11:43:23 14° 66° (ENE) 11:45:39 145.980
PRISM 27 Sep 11:42:49 11:46:18 27° 263° (W) 11:49:46 437.425
YUBILEINY 27 Sep 11:54:11 12:01:53 37° 86° (E) 12:09:33 435.215
NO-84 27 Sep 11:57:49 12:01:52 67° 131° (SE) 12:05:39 435.350 FM
POLYITAN 1 27 Sep 11:59:41 12:03:23 30° 71° (ENE) 12:07:06 437.675
EO-79 27 Sep 12:02:40 12:06:25 33° 72° (ENE) 12:10:13 145.935-145.965
ESTCUBE 1 27 Sep 12:03:21 12:06:39 20° 95° (E) 12:09:56 437.505/2401.250
QB50P2 27 Sep 12:17:25 12:21:32 56° 75° (ENE) 12:25:42 145.880/145.840
EO-88 27 Sep 12:19:39 12:22:04 17° 291° (WNW) 12:24:30 145.990 - 145.960
O/OREOS (USA 219) 27 Sep 12:23:28 12:28:05 76° 69° (ENE) 12:32:40 437.305
NANOSAT C BR1 27 Sep 12:48:23 12:52:34 76° 258° (WSW) 12:56:47 145.865
SO-50 27 Sep 12:48:46 12:52:16 23° 111° (ESE) 12:55:46 436.795
M-CUBED/EXP-1 PRIME 27 Sep 12:52:53 12:56:55 45° 70° (ENE) 13:00:40 437.505
LO-87 27 Sep 13:01:13 13:04:38 41° 286° (WNW) 13:08:03 145.935 - 145.965
DUCHIFAT 1 27 Sep 13:14:42 13:18:39 41° 261° (W) 13:22:38 145.980
SPROUT 27 Sep 13:16:06 13:19:55 31° 97° (E) 13:23:42 437.525
Oscar 19 27 Sep 13:29:45 13:34:23 33° 69° (ENE) 13:39:01 437.125/150
BUGSAT 1 27 Sep 13:32:47 13:36:47 75° 75° (ENE) 13:40:51 437.445
